Location: Dumpton Point
(51.3500°N, 1.4433°E)
Time: 21:22:07
(UTC+00:00)

Vanguard 2 Rocket - Pass Details

Date: 30 September 2022
Orbit: 555 x 3321 km, 32.9° (Epoch: 05 December)

Event Time Altitude Azimuth Distance (km) Brightness Sun altitude
Rises 00:34:09 0° 234° (SW) 5,561 - -40.3°
Reaches altitude 10° 00:39:45 10° 219° (SW) 3,963 - -40.0°
Maximum altitude 00:45:41 18° 181° (S) 2,723 - -39.7°
Drops below altitude 10° 00:50:05 10° 141° (SE) 2,789 - -39.5°
Sets 00:53:06 0° 121° (ESE) 3,409 - -39.3°
